Weather History for Duncan, OK

Change the Weather History Date:

Wednesday, February 12, 2014

  Actual Average (KLAW) Record (KLAW)
Temperature  
Mean Temperature 38 °F -  
Max Temperature 50 °F 52 °F 85 °F (1962)
Min Temperature 26 °F 29 °F 6 °F (1981)
Degree Days  
Heating Degree Days 27    
Moisture  
Dew Point 30 °F    
Average Humidity 80    
Maximum Humidity 100    
Minimum Humidity 50    
Precipitation  
Precipitation 0.00 in - - ()
Sea Level Pressure  
Sea Level Pressure 30.12 in    
Wind  
Wind Speed 1 mph (NW)    
Max Wind Speed 12 mph    
Max Gust Speed 17 mph    
Visibility 10 miles    
Events      
Averages and records for this station are not official NWS values.
T = Trace of Precipitation, MM = Missing Value Source: NWS Daily Summary

Daily Weather History Graph

Daily Weather History Graph

Search for Another Location

Airport:

Trip Planner

Search our weather history database for the weather conditions in past years. The results will help you decide how hot, cold, wet, or windy it might be!

Date:

Astronomy

Feb. 12, 2014 Rise Set
Actual Time 7:20 AM CST 6:12 PM CST
Civil Twilight 6:54 AM CST 6:38 PM CST
Nautical Twilight 6:24 AM CST 7:07 PM CST
Astronomical Twilight 5:55 AM CST 7:37 PM CST
Moon 4:29 PM CST (2/12) 5:35 AM CST (2/12)
Length of Visible Light 11h 44m
Length of Day
10h 52m
Waxing Gibbous, 95% of the Moon is Illuminated
Feb 12
Waxing Gibbous
Feb 14
Full
Feb 22
Last Quarter
Mar 1
New
Mar 8
First Quarter

Hourly Weather History & Observations

Time (CST) Temp. Windchill Dew Point Humidity Pressure Visibility Wind Dir Wind Speed Gust Speed Precip Events Conditions
12:15 AM 32.0 °F - 28.4 °F 87% 30.21 in 10.0 mi Calm Calm - N/A   Overcast
12:35 AM 32.0 °F - 28.4 °F 87% 30.21 in 10.0 mi Calm Calm - N/A   Mostly Cloudy
12:55 AM 28.4 °F - 26.6 °F 93% 30.18 in 10.0 mi Calm Calm - N/A   Scattered Clouds
1:15 AM 30.2 °F - 28.4 °F 93% 30.18 in 10.0 mi Calm Calm - N/A   Mostly Cloudy
1:35 AM 30.2 °F - 28.4 °F 93% 30.17 in 10.0 mi Calm Calm - N/A   Mostly Cloudy
1:55 AM 28.4 °F - 28.4 °F 100% 30.18 in 10.0 mi Calm Calm - N/A   Scattered Clouds
2:15 AM 30.2 °F - 28.4 °F 93% 30.18 in 10.0 mi Calm Calm - N/A   Overcast
2:35 AM 30.2 °F - 28.4 °F 93% 30.18 in 10.0 mi Calm Calm - N/A   Overcast
2:55 AM 30.2 °F - 30.2 °F 100% 30.19 in 10.0 mi Calm Calm - N/A   Overcast
3:15 AM 30.2 °F - 30.2 °F 100% 30.19 in 10.0 mi Calm Calm - N/A   Overcast
3:35 AM 30.2 °F - 30.2 °F 100% 30.19 in 10.0 mi Calm Calm - N/A   Overcast
3:55 AM 30.2 °F - 30.2 °F 100% 30.17 in 10.0 mi Calm Calm - N/A   Overcast
4:15 AM 30.2 °F - 30.2 °F 100% 30.15 in 10.0 mi Calm Calm - N/A   Overcast
4:35 AM 30.2 °F - 30.2 °F 100% 30.15 in 10.0 mi Calm Calm - N/A   Mostly Cloudy
4:55 AM 30.2 °F - 30.2 °F 100% 30.16 in 10.0 mi Calm Calm - N/A   Overcast
5:15 AM 30.2 °F - 30.2 °F 100% 30.17 in 10.0 mi Calm Calm - N/A   Overcast
5:35 AM 30.2 °F - 30.2 °F 100% 30.18 in 10.0 mi Calm Calm - N/A   Overcast
5:55 AM 30.2 °F - 30.2 °F 100% 30.17 in 10.0 mi Calm Calm - N/A   Overcast
6:15 AM 30.2 °F - 30.2 °F 100% 30.18 in 10.0 mi Calm Calm - N/A   Mostly Cloudy
6:35 AM 30.2 °F - 30.2 °F 100% 30.18 in 10.0 mi Calm Calm - N/A   Mostly Cloudy
6:55 AM 28.4 °F - 28.4 °F 100% 30.18 in 10.0 mi Calm Calm - N/A   Scattered Clouds
7:15 AM 28.4 °F - 28.4 °F 100% 30.18 in 10.0 mi Calm Calm - N/A   Clear
7:35 AM 28.4 °F - 28.4 °F 100% 30.18 in 10.0 mi Calm Calm - N/A   Clear
7:55 AM 26.6 °F - 26.6 °F 100% 30.19 in 10.0 mi Calm Calm - N/A   Clear
8:15 AM 28.4 °F - 28.4 °F 100% 30.19 in 10.0 mi Calm Calm - N/A   Clear
8:35 AM 30.2 °F - 30.2 °F 100% 30.19 in 10.0 mi Calm Calm - N/A   Clear
8:55 AM 32.0 °F - 30.2 °F 93% 30.19 in 10.0 mi Calm Calm - N/A   Clear
9:15 AM 32.0 °F - 30.2 °F 93% 30.19 in 10.0 mi Calm Calm - N/A   Clear
9:35 AM 33.8 °F - 28.4 °F 81% 30.19 in 10.0 mi Calm Calm - N/A   Clear
9:55 AM 35.6 °F - 28.4 °F 75% 30.18 in 10.0 mi Calm Calm - N/A   Clear
10:15 AM 35.6 °F - 28.4 °F 75% 30.19 in 10.0 mi Calm Calm - N/A   Clear
10:35 AM 37.4 °F 32.8 °F 28.4 °F 70% 30.17 in 10.0 mi West 5.8 mph - N/A   Clear
10:55 AM 37.4 °F 30.8 °F 28.4 °F 70% 30.18 in 10.0 mi West 9.2 mph - N/A   Clear
11:15 AM 41.0 °F 39.0 °F 28.4 °F 61% 30.19 in 10.0 mi West 3.5 mph - N/A   Clear
11:35 AM 41.0 °F 35.8 °F 30.2 °F 65% 30.19 in 10.0 mi WNW 8.1 mph - N/A   Clear
11:55 AM 41.0 °F - 30.2 °F 65% 30.18 in 10.0 mi Calm Calm - N/A   Clear
12:15 PM 42.8 °F 39.3 °F 30.2 °F 61% 30.16 in 10.0 mi WNW 5.8 mph - N/A   Clear
12:35 PM 42.8 °F 38.0 °F 30.2 °F 61% 30.15 in 10.0 mi WNW 8.1 mph - N/A   Clear
12:55 PM 44.6 °F 40.2 °F 30.2 °F 57% 30.13 in 10.0 mi NW 8.1 mph - N/A   Clear
1:15 PM 44.6 °F 43.1 °F 30.2 °F 57% 30.11 in 10.0 mi NW 3.5 mph - N/A   Clear
1:35 PM 46.4 °F 41.5 °F 32.0 °F 57% 30.09 in 10.0 mi West 10.4 mph - N/A   Clear
1:55 PM 46.4 °F - 32.0 °F 57% 30.08 in 10.0 mi Calm Calm - N/A   Clear
2:15 PM 48.2 °F - 32.0 °F 54% 30.07 in 10.0 mi Calm Calm - N/A   Clear
2:35 PM 50.0 °F - 32.0 °F 50% 30.06 in 10.0 mi NW 11.5 mph - N/A   Clear
2:55 PM 50.0 °F - 32.0 °F 50% 30.06 in 10.0 mi WNW 6.9 mph - N/A   Clear
3:15 PM 50.0 °F - 32.0 °F 50% 30.05 in 10.0 mi NW 8.1 mph - N/A   Clear
3:35 PM 50.0 °F - 32.0 °F 50% 30.05 in 10.0 mi NW 11.5 mph 17.3 mph N/A   Clear
3:55 PM 50.0 °F - 32.0 °F 50% 30.05 in 10.0 mi NW 11.5 mph - N/A   Clear
4:15 PM 50.0 °F - 32.0 °F 50% 30.04 in 10.0 mi WNW 3.5 mph - N/A   Clear
4:35 PM 50.0 °F - 32.0 °F 50% 30.04 in 10.0 mi NW 4.6 mph - N/A   Clear
4:55 PM 50.0 °F - 32.0 °F 50% 30.05 in 10.0 mi Calm Calm - N/A   Clear
5:15 PM 50.0 °F - 32.0 °F 50% 30.06 in 10.0 mi Calm Calm - N/A   Clear
5:35 PM 50.0 °F - 32.0 °F 50% 30.06 in 10.0 mi NNE 10.4 mph - N/A   Clear
5:55 PM 46.4 °F 45.2 °F 32.0 °F 57% 30.07 in 10.0 mi North 3.5 mph - N/A   Clear
6:15 PM 44.6 °F - 32.0 °F 61% 30.06 in 10.0 mi Calm Calm - N/A   Clear
6:35 PM 42.8 °F - 32.0 °F 66% 30.06 in 10.0 mi Calm Calm - N/A   Clear
6:55 PM 41.0 °F - 32.0 °F 70% 30.07 in 10.0 mi Calm Calm - N/A   Clear
7:15 PM 41.0 °F - 32.0 °F 70% 30.07 in 10.0 mi Calm Calm - N/A   Clear
7:35 PM 39.2 °F - 32.0 °F 75% 30.07 in 10.0 mi Calm Calm - N/A   Clear
7:55 PM 41.0 °F - 32.0 °F 70% 30.07 in 10.0 mi Calm Calm - N/A   Clear
8:15 PM 37.4 °F - 32.0 °F 81% 30.06 in 10.0 mi Calm Calm - N/A   Clear
8:35 PM 37.4 °F - 32.0 °F 81% 30.05 in 10.0 mi Calm Calm - N/A   Clear
8:55 PM 37.4 °F - 32.0 °F 81% 30.07 in 10.0 mi Calm Calm - N/A   Clear
9:15 PM 35.6 °F - 32.0 °F 87% 30.05 in 10.0 mi Calm Calm - N/A   Clear
9:35 PM 33.8 °F - 32.0 °F 93% 30.05 in 10.0 mi Calm Calm - N/A   Clear
9:55 PM 33.8 °F - 32.0 °F 93% 30.05 in 10.0 mi Calm Calm - N/A   Clear
10:15 PM 32.0 °F - 32.0 °F 100% 30.04 in 10.0 mi Calm Calm - N/A   Clear
10:35 PM 30.2 °F - 30.2 °F 100% 30.04 in 10.0 mi Calm Calm - N/A   Clear
10:55 PM 32.0 °F - 32.0 °F 100% 30.04 in 10.0 mi Calm Calm - N/A   Clear
11:15 PM 32.0 °F - 30.2 °F 93% 30.04 in 10.0 mi Calm Calm - N/A   Clear
11:35 PM 30.2 °F - 30.2 °F 100% 30.05 in 10.0 mi Calm Calm - N/A   Clear
11:55 PM 32.0 °F - 32.0 °F 100% 30.04 in 10.0 mi Calm Calm - N/A   Clear